Regional Weather Roundup
Issued by NWS

Home | Current Version | Previous Version | Text Only | Print | Product List | Glossary Off
Versions: 1 2 3 4 5 6 7 8 9 10 11 12 13 14 15 16 17 18 19 20 21 22 23 24 25 26 27 28 29 30 31 32 33 34 35 36 37 38 39 40 41 42 43 44 45 46 47 48 49 50

650
ASUS45 KABQ 180110
RWRNM
NEW MEXICO REGIONAL WEATHER ROUNDUP
NATIONAL WEATHER SERVICE ALBUQUERQUE NM
600 PM MST TUE JAN 17 2017

NOTE: "FAIR" MEANS FEW OR NO CLOUDS BELOW 12,000 FEET AGL WITH NO
       SIGNIFICANT WEATHER OR OBSTRUCTIONS TO VISION.

      THIS PRODUCT IS RELEASED AS TWO VERSIONS.  ONE VERSION NEAR
      THE TOP OF THE HOUR CONTAINING PRELIMINARY DATA FROM ALBUQUERQUE
      AND OTHER STATIONS.  A FINAL VERSION WITH ADDITIONAL DATA IS
      ISSUED ABOUT 10 MINUTES AFTER THE HOUR.

NMZ501-503-504-510>518-180200-
NORTHWEST PLATEAU/NORTHCENTRAL MOUNTAINS

CITY           SKY/WX    TMP DP  RH WIND       PRES   REMARKS
FARMINGTON     FAIR      40  34  79 W9        30.12R WCI  34
LOS ALAMOS     CLOUDY    37  29  75 CALM      30.11S
SANTA FE       FAIR      37  28  70 N9        30.08S WCI  30
TAOS           MOCLDY    34  21  60 CALM      30.11S
ANGEL FIRE     FAIR      30  24  79 E3        30.11S

$$
NMZ402-403-502-505>509-180200-
WESTCENTRAL MOUNTAINS/SOUTHWEST MOUNTAINS

CITY           SKY/WX    TMP DP  RH WIND       PRES   REMARKS
GALLUP         MOCLDY    36  31  82 NE12      30.13R WCI  28
GRANTS         FAIR      34  30  84 CALM      30.13R
SILVER CITY    FAIR      39  37  91 S5        30.10R

$$
NMZ407-409-411-412-180200-
SOUTHERN DESERTS

CITY           SKY/WX    TMP DP  RH WIND       PRES   REMARKS
DEMING         FAIR      44  40  85 E5        30.09R
LAS CRUCES     FAIR      43  42  94 NE3       30.11R
HOLLOMAN AFB   DRIZZLE   44  43  99 SE9       30.14R
ALAMOGORDO     LGT RAIN  43  39  87 NE8       30.12R
T OR C         FAIR      46  39  76 S3        30.08R

$$
NMZ519>523-180200-
CENTRAL VALLEYS/CENTRAL HIGHLANDS

CITY           SKY/WX    TMP DP  RH WIND       PRES   REMARKS
ALBUQUERQUE    FAIR      45  34  65 SW6       30.09S
DOUBLE EAGLE   CLEAR     39  34  81 W6        30.10R WCI  35
MORIARTY ARPT  FAIR      39  32  74 CALM      30.10S
CLINES CORNERS FAIR      31  28  89 W12       30.09S WCI  22
BELEN          FAIR      42  35  78 NW3       30.10R
SOCORRO        MOCLDY    44  36  73 NW3       30.09R

$$
NMZ524>526-539-540-180200-
SOUTHCENTRAL MOUNTAINS

CITY           SKY/WX    TMP DP  RH WIND       PRES   REMARKS
RUIDOSO        CLOUDY    36  32  87 SW3       30.13R

$$
NMZ527>531-180200-
NORTHEAST HIGHLANDS/NORTHEAST PLAINS

CITY           SKY/WX    TMP DP  RH WIND       PRES   REMARKS
LAS VEGAS      FAIR      35  30  82 CALM      30.06R
RATON          FAIR      27  23  85 N8        30.04S WCI  19
CLAYTON        FAIR      38  34  85 W7        30.06R WCI  33

$$
NMZ532>537-180200-
EASTCENTRAL PLAINS

CITY           SKY/WX    TMP DP  RH WIND       PRES   REMARKS
TUCUMCARI      MOCLDY    46  36  68 SW3       30.05R
CANNON AFB     LGT RAIN  46  46 100 S10       30.11R
CLOVIS AIRPORT CLOUDY    45  39  81 SE8       30.11R

$$
NMZ028-029-538-180200-
SOUTHEAST PLAINS

CITY           SKY/WX    TMP DP  RH WIND       PRES   REMARKS
ROSWELL        RAIN      44  41  89 S8        30.14R
ARTESIA        RAIN      43  43 100 SW9       30.15R
CARLSBAD       LGT RAIN  44  42  93 CALM      30.13S
HOBBS          CLOUDY    46  39  76 SE7       30.13R


$$




USA.gov is the U.S. government's official web portal to all federal, state and local government web resources and services.